Wind_Speed
1 1 2 2 2 2 2 2 2 2 3 3 4 6 7 6 6 6 6 7 7 7 7 7 7 8 8 8 9 9 9 8 8 8 8 8 7 8 7 7 7 7 7
2 1 1 2 2 2 2 2 2 3 3 4 5 6 7 6 6 7 7 7 8 8 8 8 8 9 9 9 9 10 10 10 10 10 9 9 9 9 9 9 9 8 8
2 2 2 2 3 4 3 3 3 3 4 5 6 7 7 7 7 8 8 8 8 8 9 9 10 10 10 10 10 11 10 10 11 11 10 10 11 10 10 10 10 10 10
3 3 4 3 4 4 4 4 4 4 5 5 6 7 7 8 9 9 9 10 9 10 10 10 10 11 11 11 11 11 11 11 11 11 11 12 12 12 12 12 12 12 12
4 4 4 4 4 4 4 4 5 5 5 5 6 6 7 8 9 10 10 10 10 10 10 11 11 12 12 11 11 12 12 12 12 12 13 13 13 13 13 14 13 13 13
5 5 5 5 5 5 5 5 5 6 6 6 7 7 8 9 10 10 11 11 11 11 12 12 12 12 12 12 12 13 13 13 13 14 14 14 14 14 14 14 14 14 14
6 6 7 7 7 6 6 6 7 7 8 7 8 8 8 9 10 11 11 12 12 12 13 13 13 13 13 13 14 14 14 14 14 14 14 15 15 16 15 15 15 16 16
6 7 7 8 7 7 7 7 7 8 8 8 8 8 9 9 10 11 12 12 12 12 12 13 14 14 15 15 15 14 14 14 14 15 16 17 17 18 18 18 18 18 18
7 7 8 9 8 8 8 8 8 8 9 9 9 9 9 10 10 11 11 11 12 12 13 14 14 15 15 16 16 16 16 16 16 17 17 18 19 19 19 19 19 19 20
8 8 9 9 9 9 9 9 9 9 9 9 9 10 10 10 10 11 11 12 12 12 13 13 14 14 15 16 16 17 17 17 18 19 19 19 20 20 21 21 21 21 21
9 9 10 10 10 10 10 11 10 10 10 11 11 11 12 12 12 12 12 12 12 13 14 14 14 15 16 16 17 17 17 18 19 19 20 20 20 20 21 21 22 22 22
9 10 11 11 11 11 11 12 12 11 11 11 12 13 13 13 13 13 13 12 13 14 15 15 15 15 16 16 17 17 18 19 19 19 20 20 21 21 21 22 22 22 22
11 12 12 13 13 13 12 12 12 12 12 12 13 13 14 14 14 14 14 14 14 15 15 15 16 16 17 17 17 17 18 19 19 20 20 21 21 22 22 22 22 22 23
13 14 14 14 14 13 13 13 12 13 13 13 13 14 14 15 15 15 15 15 15 16 16 17 17 17 18 18 18 18 19 20 20 21 22 22 22 22 22 23 23 23 23
14 14 15 15 15 14 14 14 14 14 14 14 14 15 15 15 15 16 16 16 16 17 17 18 18 18 19 19 19 19 20 21 21 22 22 22 22 21 21 22 22 23 23
14 15 16 16 16 16 15 15 15 15 15 15 15 15 16 16 16 16 16 17 17 18 17 18 19 19 19 19 20 20 21 21 22 23 23 23 23 23 22 22 22 22 22
15 16 17 17 17 17 16 16 16 16 16 17 16 17 17 17 17 18 18 18 18 19 19 19 19 20 20 20 21 22 21 21 22 23 23 23 23 23 23 22 22 22 23
16 17 17 18 18 18 17 17 17 18 18 18 18 18 18 18 18 19 19 19 19 19 19 19 20 21 21 21 22 22 22 22 22 22 21 22 22 22 22 22 22 23 23
17 17 18 19 19 19 19 18 19 19 19 19 19 19 19 19 19 19 19 20 19 19 20 20 20 21 22 22 22 22 22 22 22 21 20 20 21 22 22 22 23 23 23
18 19 19 19 20 20 19 20 20 20 19 19 19 19 19 19 19 19 20 20 20 21 21 21 21 21 22 22 22 22 22 22 21 21 20 21 21 22 22 23 24 24 24
20 20 21 21 22 22 21 21 21 20 20 20 20 20 20 20 20 20 21 21 21 22 22 22 22 22 22 22 22 22 22 22 21 20 20 20 20 21 22 23 24 24 24
22 22 22 22 22 22 22 22 21 21 21 21 21 21 21 21 20 20 21 21 22 22 23 23 22 22 22 22 22 21 20 20 20 20 20 20 20 21 21 22 23 24 24
23 24 24 24 24 23 23 22 22 22 22 22 22 22 21 21 21 21 21 21 22 22 22 23 23 22 22 22 22 21 21 20 20 20 20 20 21 21 21 22 23 23 24
25 25 25 25 24 24 24 24 25 25 25 24 24 24 24 23 22 22 22 23 23 23 23 23 23 23 23 23 22 22 21 21 21 21 21 21 21 22 22 23 23 24 24
25 25 25 25 25 26 26 26 26 25 25 25 26 26 25 25 25 25 24 24 24 24 24 24 24 24 24 24 23 22 22 22 22 22 22 23 23 23 23 23 24 25 25
25 26 26 26 27 27 26 26 26 26 26 26 27 27 26 27 27 27 27 26 26 25 26 26 25 25 25 25 24 24 23 23 22 22 23 23 24 24 24 24 25 26 26
Wind_Direction
12 251 220 237 234 236 232 227 224 231 234 235 222 223 228 229 227 231 242 241 243 252 255 252 256 257 256 254 255 255 253 254 249 251 252 257 264 268 268 271 271 271 274
10 339 270 259 255 256 244 232 240 247 247 247 237 236 241 239 242 247 249 252 252 255 256 252 259 264 263 260 258 256 258 252 251 254 256 259 264 268 269 270 272 271 273
359 349 332 290 265 261 255 260 267 262 266 261 251 249 248 249 255 256 256 259 262 261 260 258 260 265 266 266 262 259 262 259 256 255 258 262 263 266 269 269 272 272 274
338 335 330 307 278 265 264 267 268 267 273 268 257 254 254 259 259 258 256 258 262 262 261 261 261 263 263 264 261 261 264 264 260 258 260 264 264 267 269 271 271 273 275
334 328 328 322 299 284 280 275 269 267 268 265 269 266 261 263 264 264 262 261 266 260 263 266 265 266 265 263 261 263 264 262 264 265 264 264 266 269 272 271 271 274 275
350 342 335 331 322 306 301 300 289 282 277 277 277 272 271 274 269 268 268 270 273 269 267 267 267 267 267 265 264 265 264 263 264 266 267 267 266 269 270 271 269 272 275
356 348 343 336 325 316 310 308 301 292 286 284 284 282 282 280 275 272 272 275 276 277 274 271 270 272 268 267 266 265 264 263 265 267 268 268 266 267 269 270 272 273 274
352 348 344 339 332 323 320 312 306 298 290 287 289 286 286 285 283 278 276 276 278 278 277 276 276 276 272 270 270 267 266 267 267 269 270 272 271 269 269 269 271 272 273
351 347 346 344 339 330 321 314 308 301 295 291 290 286 285 287 286 284 286 285 284 280 279 280 283 281 277 276 276 274 274 273 272 272 273 274 274 272 269 270 271 271 272
348 346 342 339 337 331 322 315 308 304 300 296 295 293 291 291 290 289 289 287 286 285 284 285 287 286 284 282 279 278 277 276 275 273 273 274 275 274 269 268 269 270 271
342 340 338 333 329 327 325 325 319 310 303 298 295 293 292 291 292 292 290 290 288 286 285 285 285 287 286 284 279 279 278 278 277 275 272 272 273 273 270 267 270 271 271
340 337 334 331 324 319 317 319 316 314 308 301 297 295 293 292 293 292 291 290 289 288 286 287 288 288 289 288 285 283 281 280 279 277 274 272 271 271 272 269 270 270 271
336 334 333 330 324 320 317 317 314 310 311 308 304 300 297 295 294 293 293 291 290 291 291 290 290 290 289 288 288 286 285 282 279 277 277 275 273 273 273 273 270 269 270
331 332 329 327 325 322 320 317 312 309 309 309 308 304 301 299 297 295 294 294 293 292 291 292 293 292 290 289 287 288 286 283 280 277 276 276 276 275 274 274 274 271 270
329 329 329 327 325 322 318 315 311 308 306 305 305 304 304 303 302 298 294 293 291 291 291 290 291 291 290 289 288 287 284 283 283 280 279 279 277 276 276 275 275 273 273
326 326 327 326 324 321 317 315 312 310 307 304 303 303 302 301 302 302 299 294 291 292 292 293 292 291 292 292 290 289 287 285 284 282 280 279 278 278 277 276 277 277 276
323 323 323 323 321 319 319 315 311 308 306 303 300 299 298 299 298 300 299 298 296 294 294 293 294 295 293 292 294 293 291 288 286 283 281 280 278 278 277 276 276 276 277
318 318 319 320 319 319 317 315 312 307 304 302 299 297 298 299 298 299 297 297 297 295 294 294 294 294 294 293 295 295 293 292 289 286 284 281 279 278 276 276 277 279 279
317 316 317 318 317 315 315 313 311 307 305 303 301 298 299 300 299 298 298 299 299 297 296 296 295 295 295 293 293 293 293 291 289 288 286 283 282 279 278 280 281 281 282
317 316 315 315 315 312 311 308 309 307 305 304 304 302 302 301 301 301 301 301 300 299 299 298 298 297 297 296 295 293 293 291 289 288 286 283 280 279 280 282 283 283 282
313 314 314 313 313 312 309 307 306 306 307 305 305 304 303 301 301 300 301 301 300 300 299 299 299 299 299 299 297 294 291 290 291 290 287 285 284 283 282 281 282 282 282
309 310 310 312 311 309 307 306 305 305 306 305 303 300 299 299 300 300 300 300 300 299 298 297 298 298 297 297 297 296 292 292 293 292 291 291 292 291 288 286 284 284 284
306 307 307 308 308 307 304 302 303 304 304 304 304 300 298 298 300 300 299 301 301 301 298 296 296 296 296 295 295 298 297 293 294 294 293 293 294 292 291 290 288 288 288
302 303 303 304 304 304 302 300 300 301 301 301 301 300 297 296 297 297 298 298 300 301 299 297 296 296 295 295 294 293 295 293 293 294 293 294 294 294 294 293 291 291 291
299 300 302 303 302 302 300 299 299 298 299 300 300 298 295 295 296 295 296 297 297 298 298 297 295 294 294 293 292 291 290 290 291 292 292 293 293 293 293 293 293 293 292
296 298 300 301 301 301 300 298 296 297 297 298 299 297 295 296 296 295 294 294 294 294 294 294 293 292 292 291 290 289 289 289 289 290 292 293 294 293 293 292 293 293 292
Height
5880 5880 5880 5881 5881 5882 5882 5882 5882 5883 5883 5883 5883 5884 5885 5885 5887 5887 5888 5889 5890 5890 5891 5892 5892 5893 5893 5893 5894 5895 5895 5896 5896 5897 5897 5898 5898 5899 5899 5899 5899 5899 5899
5880 5880 5881 5881 5881 5881 5882 5882 5882 5882 5882 5883 5883 5883 5883 5884 5885 5886 5887 5888 5888 5889 5889 5890 5891 5891 5891 5892 5892 5892 5893 5894 5894 5895 5895 5896 5896 5897 5897 5897 5897 5897 5897
5881 5881 5881 5881 5881 5881 5881 5882 5882 5882 5882 5882 5883 5883 5883 5884 5884 5885 5886 5886 5886 5887 5887 5888 5889 5889 5889 5890 5890 5890 5891 5892 5892 5893 5893 5894 5894 5894 5895 5895 5895 5895 5895
5881 5881 5881 5881 5881 5881 5881 5881 5882 5882 5882 5882 5882 5882 5883 5883 5884 5884 5884 5884 5884 5885 5885 5886 5886 5887 5887 5887 5888 5888 5889 5889 5890 5890 5891 5891 5891 5892 5892 5892 5892 5892 5892
5882 5882 5881 5880 5880 5880 5880 5880 5881 5881 5881 5881 5881 5881 5881 5882 5882 5882 5883 5882 5883 5883 5883 5883 5884 5884 5885 5885 5885 5886 5886 5886 5887 5887 5888 5888 5889 5889 5889 5889 5889 5889 5889
5882 5882 5881 5880 5880 5880 5880 5880 5880 5880 5880 5880 5880 5880 5880 5880 5880 5881 5881 5880 5880 5881 5881 5881 5882 5882 5882 5882 5883 5883 5883 5883 5884 5884 5885 5885 5885 5886 5886 5886 5886 5886 5886
5882 5882 5881 5880 5880 5880 5880 5879 5879 5879 5879 5879 5878 5878 5878 5878 5879 5878 5878 5878 5878 5878 5879 5879 5879 5879 5880 5880 5880 5880 5880 5880 5881 5881 5881 5881 5882 5882 5882 5882 5882 5882 5882
5882 5882 5881 5880 5879 5879 5878 5878 5878 5878 5878 5878 5877 5877 5877 5877 5877 5876 5876 5876 5876 5876 5876 5876 5876 5876 5877 5876 5876 5877 5877 5877 5877 5877 5877 5877 5877 5878 5878 5878 5878 5878 5878
5882 5881 5880 5880 5879 5878 5878 5877 5877 5877 5876 5876 5876 5876 5875 5875 5874 5874 5873 5873 5873 5873 5873 5873 5873 5873 5873 5872 5873 5873 5873 5873 5873 5873 5873 5873 5873 5873 5873 5873 5873 5873 5873
5882 5881 5880 5879 5878 5878 5877 5876 5875 5875 5874 5874 5873 5873 5873 5872 5872 5872 5871 5871 5870 5870 5870 5870 5870 5869 5869 5869 5869 5869 5869 5868 5868 5868 5868 5868 5868 5868 5868 5868 5868 5868 5867
5882 5880 5879 5878 5877 5876 5876 5875 5874 5873 5872 5872 5871 5871 5870 5870 5869 5869 5868 5868 5867 5867 5866 5866 5866 5865 5865 5864 5864 5864 5864 5863 5863 5862 5862 5862 5862 5862 5862 5862 5862 5862 5862
5881 5880 5878 5877 5876 5874 5874 5873 5872 5871 5870 5869 5869 5868 5868 5867 5866 5866 5865 5864 5864 5863 5863 5862 5862 5861 5860 5860 5858 5858 5858 5858 5857 5857 5857 5856 5856 5856 5857 5857 5856 5856 5856
5880 5878 5877 5876 5874 5872 5871 5870 5869 5869 5868 5867 5866 5866 5865 5864 5863 5863 5862 5861 5860 5859 5859 5858 5857 5857 5856 5855 5854 5854 5853 5853 5852 5852 5851 5851 5851 5850 5850 5850 5850 5849 5849
5878 5877 5875 5874 5872 5870 5869 5868 5867 5866 5865 5864 5863 5863 5862 5861 5860 5859 5858 5857 5856 5856 5855 5854 5853 5852 5851 5850 5849 5849 5848 5847 5847 5846 5846 5845 5845 5844 5844 5844 5843 5843 5843
5876 5875 5873 5872 5870 5868 5867 5866 5865 5864 5863 5862 5861 5860 5859 5858 5857 5856 5855 5853 5853 5852 5851 5850 5849 5847 5846 5845 5844 5843 5842 5842 5841 5840 5840 5839 5839 5838 5838 5837 5837 5837 5837
5874 5873 5871 5869 5867 5866 5864 5863 5862 5861 5860 5858 5858 5857 5855 5854 5853 5852 5851 5849 5848 5847 5847 5846 5844 5843 5841 5840 5839 5838 5837 5836 5835 5834 5834 5833 5833 5832 5832 5831 5831 5831 5831
5872 5870 5869 5867 5865 5863 5861 5860 5858 5857 5856 5855 5854 5853 5851 5850 5849 5848 5846 5845 5844 5843 5842 5841 5839 5838 5836 5834 5833 5832 5831 5830 5829 5828 5827 5827 5826 5826 5825 5825 5825 5825 5824
5869 5868 5866 5864 5862 5860 5858 5856 5855 5854 5852 5851 5850 5848 5847 5846 5845 5843 5842 5840 5839 5838 5837 5835 5834 5832 5831 5829 5828 5826 5825 5823 5822 5822 5821 5820 5820 5819 5819 5819 5819 5818 5817
5866 5865 5863 5861 5858 5856 5854 5853 5851 5850 5848 5847 5845 5844 5843 5841 5840 5838 5837 5835 5834 5833 5831 5830 5829 5827 5825 5824 5822 5821 5819 5818 5816 5815 5814 5814 5813 5813 5812 5812 5812 5811 5810
5863 5861 5859 5857 5855 5852 5851 5849 5847 5846 5844 5843 5841 5839 5838 5836 5835 5833 5832 5830 5829 5828 5826 5825 5823 5821 5820 5818 5816 5814 5813 5812 5811 5810 5808 5808 5807 5806 5806 5805 5805 5804 5803
5860 5858 5856 5853 5851 5849 5847 5845 5843 5842 5840 5838 5837 5835 5833 5831 5830 5828 5827 5825 5824 5822 5821 5819 5817 5816 5814 5812 5810 5809 5807 5806 5805 5804 5802 5802 5800 5799 5799 5798 5797 5796 5796
5856 5854 5852 5849 5847 5845 5843 5841 5839 5838 5836 5834 5832 5830 5828 5826 5825 5823 5822 5820 5818 5817 5815 5813 5812 5810 5808 5806 5804 5803 5801 5800 5799 5798 5797 5796 5795 5793 5792 5791 5790 5789 5788
5851 5849 5847 5845 5842 5840 5838 5836 5834 5833 5831 5829 5827 5825 5823 5821 5819 5818 5816 5814 5812 5811 5809 5807 5806 5804 5802 5800 5799 5797 5795 5794 5793 5792 5791 5789 5788 5787 5786 5785 5783 5782 5781
5846 5844 5842 5839 5837 5835 5833 5831 5829 5827 5825 5823 5821 5819 5818 5816 5814 5812 5810 5808 5806 5804 5802 5801 5799 5798 5796 5794 5793 5791 5789 5788 5787 5786 5784 5784 5782 5781 5779 5778 5776 5775 5773
5840 5838 5836 5833 5831 5829 5826 5824 5822 5820 5819 5817 5815 5813 5811 5809 5808 5805 5803 5802 5800 5798 5796 5794 5792 5791 5789 5787 5786 5785 5783 5782 5781 5780 5778 5777 5776 5774 5772 5771 5769 5768 5766
5833 5831 5829 5827 5824 5822 5819 5816 5815 5813 5812 5810 5808 5806 5804 5802 5800 5798 5796 5794 5793 5791 5789 5787 5785 5784 5782 5781 5779 5778 5777 5775 5774 5773 5772 5770 5768 5767 5766 5764 5762 5760 5758